Hourly Data Report for October 09, 2016

All times are specified in Local Standard Time (LST). Add 1 hour to adjust for Daylight Saving Time where and when it is observed.

POND INLET A
NUNAVUT

72°41'22.000" N
77°58'08.000" W
61.60 m
2403206
71095
YIO

Related Data

No related data is available for this station

Download Data

Hourly Data (October 2016)
Hourly Data Report for October 9, 2016
Temp Definition
°C
Dew Point Temp Definition
°C
Rel Hum Definition
%
Wind Dir Definition
10's deg

Wind Spd Definition
km/h
Visibility Definition
km
Stn Press Definition
kPa
Hmdx Definition


Wind Chill Definition


Weather Definition


TIME
00:00 Legend Double Dagger -7.6 -10.2 82 15 15 16.1 100.23   -14 LegendNANA
01:00 Legend Double Dagger -7.7 -10.1 83 14 15 16.1 100.21   -14 LegendNANA
02:00 Legend Double Dagger -7.3 -9.9 82 14 15 16.1 100.20   -13 LegendNANA
03:00 Legend Double Dagger -8.7 -10.2 89 15 13 16.1 100.19   -15 LegendNANA
04:00 Legend Double Dagger -8.6 -10.2 88 15 17 16.1 100.17   -15 LegendNANA
05:00 Legend Double Dagger -7.0 -9.0 86 15 13 16.1 100.16   -13 LegendNANA
06:00 Legend Double Dagger -7.3 -9.0 88 15 11 16.1 100.16   -12 LegendNANA
07:00 Legend Double Dagger -8.9 -10.7 87 14 17 16.1 100.14   -16 LegendNANA
08:00 Legend Double Dagger -9.2 -10.8 88 15 13 16.1 100.14   -15 LegendNANA
09:00 Legend Double Dagger -9.2 -11.0 87 15 13 16.1 100.13   -15 LegendNANA
10:00 Legend Double Dagger -9.3 -11.8 82 15 17 16.1 100.11   -16 LegendNANA
11:00 Legend Double Dagger -8.2 -10.9 81 15 17 16.1 100.09   -15 LegendNANA
12:00 Legend Double Dagger -7.8 -10.5 81 15 15 16.1 100.07   -14 LegendNANA
13:00 Legend Double Dagger -7.3 -9.7 83 15 17 16.1 100.09   -14 Snow
14:00 Legend Double Dagger -8.2 -10.6 83 14 17 16.1 100.09   -15 Snow
15:00 Legend Double Dagger -8.4 -10.3 86 15 15 16.1 100.07   -15 LegendNANA
16:00 Legend Double Dagger -7.3 -9.3 86 15 15 16.1 100.07   -13 Snow
17:00 Legend Double Dagger -7.3 -9.0 88 15 17 9.7 100.07   -14 Snow
18:00 Legend Double Dagger -6.5 -8.3 87 14 15 11.3 100.06   -12 Snow
19:00 Legend Double Dagger -6.6 -7.8 91 15 15 16.1 100.05   -13 Snow
20:00 Legend Double Dagger -6.4 -7.6 91 14 13 4.8 100.05   -12 Snow
21:00 Legend Double Dagger -6.5 -8.0 89 14 15 16.1 100.05   -12 Snow
22:00 Legend Double Dagger -6.2 -7.4 91 18 8 14.5 100.04   -10 Snow
23:00 Legend Double Dagger -5.8 -6.9 92 29 18 16.1 100.01   -12 Snow

Notes on Data Quality.

Legend

  • E = Estimated
  • M = Missing
  • NA = Not Available
  • ‡ = Partner data that is not subject to review by the National Climate Archives
Date modified: